星链-4282 (STARLINK-4282 )

导读

STARLINK-4282是美国太空探索技术公司(SpaceX)星链计划中的一颗卫星,于2022年7月7日发射升空,属于星链星座组网卫星,主要用于为全球提供高速互联网接入服务,尤其服务偏远地区和网络基础设施薄弱区域,依托星链星座实现低轨卫星互联网通信覆盖。

基本信息
目录编号:
53019
目录名称:
STARLINK-4282
国际标识:
2022-076AK
轨道中心:
EARTH
卫星名称:
星链-4282
卫星全名:
星链-4282 (STARLINK-4282 )
卫星状态:
在轨 (已飞行1520 天)
发射日期:
2022-07-07 UTC
国别 :
美国 (US)
星等 :
--
轨道信息
数据来源 国际轨道数据
星历时间: 2026-09-03T16:33:57+0800
19小时前
查看轨道信息
半长轴: 6843.37km
偏心率: 0.0000953
轨道倾角: 53.164°
近地点辐角 86.591°
升交点赤经 3.473°
平近点角 273.521°
近地点: 464.58km
远地点: 465.886km
周期: 93.900分钟
每日圈数: 15.335493
详细信息
固有亮度:
5
最大亮度:
2.5
卫星平台:
Starlink v1.5
覆盖范围:
全球
运营商:
太空探索技术公司
运营商所在国:
美国
制造商(研发单位):
太空探索技术公司
制造商所在国:
美国
使用方式:
暂无
卫星简介
星链(Starlink)计划是由太空探索技术公司(SpaceX)提出的一个巨型低轨卫星互联网星座项目,计划在2019年至2024年间在太空搭建由约1.2万颗卫星组成的“星链”网络,其中1584颗将部署在地球上空550千米处的近地轨道,并从2020年开始工作。该卫星仍在工作。
2D轨道图
3D轨道图
轨道高度分析图
轨道倾角分析图
轨道综合分析图
查看轨道综合分析图
交会数据列表
事件ID 空间交会对象 最接近时刻(TCA) 交会距离 交会风险概率(CRP) 交会风险指数(CRI) 操作
CDM_260904-044403-884205-301921
PSLV DEB (38842)
2026-09-04T
04:44:55+0000
1.120 km
极远距离
1.039121E-5 中风险 0.55
CDM_260831-065303-644105-301922
2026-08-31T
06:53:20+0000
1.319 km
极远距离
9.514357E-6 低风险 0.55
CDM_260903-194505-301906-489122
OBJECT R (64891)
2026-09-03T
19:45:39+0000
1.892 km
极远距离
3.225341E-6 低风险 0.45
CDM_260904-205605-301906-484321
2026-09-04T
20:56:13+0000
1.983 km
极远距离
2.568901E-6 低风险 0.43
CDM_260903-230505-301906-821021
2026-09-03T
23:05:23+0000
2.154 km
极远距离
2.21472E-6 低风险 0.42
CDM_260828-030505-301906-895621
2026-08-28T
03:05:41+0000
2.141 km
极远距离
2.11305E-6 低风险 0.41
CDM_260903-002205-301906-956021
2026-09-03T
00:22:34+0000
2.133 km
极远距离
2.062198E-6 低风险 0.41
CDM_260903-122605-301906-789324
2026-09-03T
12:26:22+0000
2.305 km
极远距离
2.051986E-6 低风险 0.41
CDM_260905-055604-326405-301921
2026-09-05T
05:56:19+0000
2.363 km
极远距离
1.954458E-6 低风险 0.41
CDM_260903-083505-301905-898422
2026-09-03T
08:35:18+0000
2.352 km
极远距离
1.755937E-6 低风险 0.4